Location: Ortegal, La Coruña, España
(43.6156°N, 7.8471°W)
Time: 03:43:38
(UTC+02:00)

ISS - Pass Details

Date: 11 February 2019
Orbit: 411 x 421 km, 51.6° (Epoch: 19 October)

Event Time Altitude Azimuth Distance (km) Brightness Sun altitude
Rises 19:48:08 0° 286° (WNW) 2,412 1.4 -10.0°
Reaches altitude 10° 19:51:18 10° 255° (WSW) 1,542 0.7 -10.6°
Maximum altitude 19:52:45 12° 230° (SW) 1,411 -0.1 -10.8°
Drops below altitude 10° 19:54:12 10° 205° (SSW) 1,539 -0.4 -11.1°
Enters shadow 20:02:51 -14° 155° (SSE) 4,437 1.3 -12.6°
